| time (UTC) | temp F | wind direction | speed knots | gust knots | rain 1hr in | rain 24hr in | rain mn in | humidity % | barometer mb |
| 20260506001439 | 70 | 90 | 3.5 | 7.8 | 0.00 | 0.00 | 0.00 | 86 | 1012.4 |
| 20260506000948 | 70 | 90 | 1.7 | 9.6 | 0.00 | 0.00 | 0.00 | 86 | 1012.1 |
| 20260506000420 | 70 | 90 | 3.5 | 9.6 | 0.00 | 0.00 | 0.00 | 86 | 1012.1 |
| 20260505235912 | 70 | 90 | 4.3 | 9.6 | 0.00 | 0.00 | 0.00 | 85 | 1012.1 |
| 20260505233843 | 71 | 90 | 1.7 | 7.0 | 0.00 | 0.00 | 0.00 | 86 | 1012.0 |
| 20260505233318 | 71 | 45 | 3.5 | 9.6 | 0.00 | 0.00 | 0.00 | 86 | 1011.8 |
| 20260505232811 | 71 | 90 | 1.7 | 9.6 | 0.00 | 0.00 | 0.00 | 86 | 1011.9 |
| 20260505232305 | 71 | 90 | 3.5 | 8.7 | 0.00 | 0.00 | 0.00 | 85 | 1011.9 |
| 20260505231751 | 71 | 90 | 2.6 | 10.4 | 0.00 | 0.00 | 0.00 | 85 | 1011.7 |
| 20260505230737 | 71 | 90 | 1.7 | 12.2 | 0.00 | 0.00 | 0.00 | 84 | 1011.6 |
| 20260505230240 | 71 | 90 | 5.2 | 9.6 | 0.00 | 0.00 | 0.00 | 84 | 1011.5 |
| 20260505225203 | 72 | 90 | 3.5 | 10.4 | 0.00 | 0.00 | 0.00 | 84 | 1011.5 |
| 20260505224654 | 72 | 90 | 5.2 | 10.4 | 0.00 | 0.00 | 0.00 | 84 | 1011.2 |
| 20260505224144 | 72 | 90 | 5.2 | 10.4 | 0.00 | 0.00 | 0.00 | 84 | 1011.3 |
| 20260505223641 | 72 | 90 | 3.5 | 11.3 | 0.00 | 0.00 | 0.00 | 83 | 1011.1 |
| 20260505223118 | 72 | 90 | 6.1 | 11.3 | 0.00 | 0.00 | 0.00 | 83 | 1011.5 |
| 20260505222607 | 72 | 90 | 3.5 | 8.7 | 0.00 | 0.00 | 0.00 | 83 | 1011.7 |
| 20260505222104 | 72 | 135 | 2.6 | 7.8 | 0.00 | 0.00 | 0.00 | 83 | 1011.7 |
| 20260505221559 | 72 | 135 | 3.5 | 7.8 | 0.00 | 0.00 | 0.00 | 83 | 1011.6 |
| 20260505220015 | 73 | 135 | 2.6 | 6.1 | 0.00 | 0.00 | 0.00 | 82 | 1011.7 |
| 20260505215514 | 73 | 135 | 3.5 | 6.1 | 0.00 | 0.00 | 0.00 | 82 | 1011.7 |
| 20260505215002 | 73 | 90 | 0.9 | 9.6 | 0.00 | 0.00 | 0.00 | 82 | 1011.7 |
| 20260505214459 | 73 | 90 | 3.5 | 9.6 | 0.00 | 0.00 | 0.00 | 81 | 1011.6 |
| 20260505213946 | 73 | 90 | 3.5 | 6.1 | 0.00 | 0.00 | 0.00 | 81 | 1011.3 |
| 20260505213429 | 73 | 90 | 1.7 | 7.0 | 0.00 | 0.00 | 0.00 | 81 | 1011.2 |
| 20260505212934 | 73 | 90 | 1.7 | 7.8 | 0.00 | 0.00 | 0.00 | 80 | 1011.1 |
| 20260505210839 | 74 | 90 | 1.7 | 10.4 | 0.00 | 0.00 | 0.00 | 79 | 1011.1 |
| 20260505210326 | 74 | 90 | 6.1 | 9.6 | 0.00 | 0.00 | 0.00 | 78 | 1011.0 |
| 20260505205822 | 74 | 90 | 3.5 | 9.6 | 0.00 | 0.00 | 0.00 | 78 | 1010.9 |
| 20260505205313 | 75 | 90 | 5.2 | 9.6 | 0.00 | 0.00 | 0.00 | 77 | 1011.0 |
| 20260505204806 | 75 | 90 | 3.5 | 8.7 | 0.00 | 0.00 | 0.00 | 77 | 1011.0 |
| 20260505204252 | 75 | 90 | 2.6 | 9.6 | 0.00 | 0.00 | 0.00 | 76 | 1011.0 |
| 20260505203233 | 76 | 90 | 2.6 | 7.0 | 0.00 | 0.00 | 0.00 | 72 | 1010.8 |
| 20260505202722 | 76 | 90 | 3.5 | 7.0 | 0.00 | 0.00 | 0.00 | 72 | 1010.9 |
| 20260505202203 | 76 | 90 | 2.6 | 6.1 | 0.00 | 0.00 | 0.00 | 71 | 1010.7 |
| 20260505201153 | 77 | 90 | 1.7 | 5.2 | 0.00 | 0.00 | 0.00 | 70 | 1010.7 |
| 20260505200632 | 77 | 90 | 1.7 | 7.0 | 0.00 | 0.00 | 0.00 | 69 | 1010.8 |
| 20260505200132 | 77 | 90 | 2.6 | 7.0 | 0.00 | 0.00 | 0.00 | 69 | 1010.8 |
| 20260505195624 | 77 | 90 | 2.6 | 3.5 | 0.00 | 0.00 | 0.00 | 68 | 1010.8 |
| 20260505195101 | 77 | 45 | 1.7 | 3.5 | 0.00 | 0.00 | 0.00 | 69 | 1010.7 |
| 20260505194604 | 77 | 90 | 0.9 | 3.5 | 0.00 | 0.00 | 0.00 | 70 | 1010.8 |
| 20260505193539 | 77 | 45 | 1.7 | 6.1 | 0.00 | 0.00 | 0.00 | 71 | 1010.9 |
| 20260505193039 | 77 | 45 | 3.5 | 6.1 | 0.00 | 0.00 | 0.00 | 70 | 1010.9 |
| 20260505192521 | 77 | 45 | 2.6 | 5.2 | 0.00 | 0.00 | 0.00 | 70 | 1011.1 |
| 20260505192013 | 77 | 45 | 1.7 | 4.3 | 0.00 | 0.00 | 0.00 | 71 | 1011.3 |
| 20260505191455 | 77 | 45 | 1.7 | 3.5 | 0.00 | 0.00 | 0.00 | 70 | 1011.1 |
| 20260505190958 | 77 | 45 | 1.7 | 3.5 | 0.00 | 0.00 | 0.00 | 71 | 1011.1 |
| 20260505190433 | 77 | 45 | 1.7 | 4.3 | 0.00 | 0.00 | 0.00 | 71 | 1011.2 |
| 20260505185920 | 77 | 0 | 1.7 | 4.3 | 0.00 | 0.00 | 0.00 | 71 | 1011.2 |
| 20260505185429 | 77 | 0 | 1.7 | 3.5 | 0.00 | 0.00 | 0.00 | 70 | 1011.1 |
| 20260505184906 | 78 | 0 | 1.7 | 3.5 | 0.00 | 0.00 | 0.00 | 70 | 1011.0 |
| 20260505183850 | 77 | 0 | 0.9 | 5.2 | 0.00 | 0.00 | 0.00 | 69 | 1011.1 |
| 20260505183335 | 77 | 0 | 1.7 | 5.2 | 0.00 | 0.00 | 0.00 | 69 | 1010.9 |
| 20260505182828 | 77 | 0 | 1.7 | 4.3 | 0.00 | 0.00 | 0.00 | 69 | 1010.7 |
| 20260505182324 | 77 | 0 | 2.6 | 4.3 | 0.00 | 0.00 | 0.00 | 70 | 1010.8 |
| 20260505181759 | 77 | 0 | 1.7 | 3.5 | 0.00 | 0.00 | 0.00 | 70 | 1011.2 |
| 20260505181256 | 77 | 0 | 0.9 | 3.5 | 0.00 | 0.00 | 0.00 | 71 | 1011.2 |
| 20260505180748 | 77 | 0 | 0.9 | 3.5 | 0.00 | 0.00 | 0.00 | 72 | 1011.3 |
| 20260505180229 | 76 | 0 | 0.9 | 1.7 | 0.00 | 0.00 | 0.00 | 70 | 1011.4 |
| 20260505175723 | 76 | 0 | 0.0 | 1.7 | 0.00 | 0.00 | 0.00 | 70 | 1011.5 |
| 20260505175226 | 76 | 0 | 0.9 | 1.7 | 0.00 | 0.00 | 0.00 | 71 | 1011.7 |
| 20260505174702 | 76 | 0 | 0.0 | 1.7 | 0.00 | 0.00 | 0.00 | 73 | 1011.6 |
| 20260505174151 | 76 | 0 | 0.0 | 1.7 | 0.00 | 0.00 | 0.00 | 73 | 1011.7 |
| 20260505173647 | 76 | 0 | 1.7 | 2.6 | 0.00 | 0.00 | 0.00 | 74 | 1011.5 |
| 20260505173128 | 76 | 0 | 0.9 | 2.6 | 0.00 | 0.00 | 0.00 | 74 | 1011.6 |
| 20260505172631 | 76 | 0 | 0.0 | 3.5 | 0.00 | 0.00 | 0.00 | 74 | 1011.6 |
| 20260505172114 | 77 | 0 | 1.7 | 3.5 | 0.00 | 0.00 | 0.00 | 74 | 1011.8 |
| 20260505171606 | 77 | 0 | 1.7 | 3.5 | 0.00 | 0.00 | 0.00 | 73 | 1011.7 |
| 20260505171049 | 77 | 0 | 0.0 | 1.7 | 0.00 | 0.00 | 0.00 | 70 | 1011.7 |
| 20260505170546 | 76 | 0 | 0.0 | 2.6 | 0.00 | 0.00 | 0.00 | 71 | 1011.9 |
| 20260505165518 | 76 | 0 | 0.0 | 3.5 | 0.00 | 0.00 | 0.00 | 72 | 1012.0 |
| 20260505165021 | 76 | 0 | 1.7 | 3.5 | 0.00 | 0.00 | 0.00 | 72 | 1012.0 |
| 20260505164502 | 76 | 0 | 1.7 | 3.5 | 0.00 | 0.00 | 0.00 | 71 | 1012.0 |
| 20260505163948 | 76 | 0 | 1.7 | 5.2 | 0.00 | 0.00 | 0.00 | 71 | 1012.2 |
| 20260505163441 | 76 | 0 | 1.7 | 5.2 | 0.00 | 0.00 | 0.00 | 71 | 1012.1 |
| 20260505162934 | 76 | 0 | 4.3 | 5.2 | 0.00 | 0.00 | 0.00 | 72 | 1012.0 |
| 20260505162414 | 76 | 0 | 1.7 | 3.5 | 0.00 | 0.00 | 0.00 | 72 | 1012.3 |
| 20260505161918 | 76 | 0 | 0.9 | 3.5 | 0.00 | 0.00 | 0.00 | 73 | 1012.1 |
| 20260505161359 | 76 | 0 | 0.9 | 3.5 | 0.00 | 0.00 | 0.00 | 72 | 1012.2 |
| 20260505160346 | 76 | 0 | 1.7 | 4.3 | 0.00 | 0.00 | 0.00 | 74 | 1012.4 |
| 20260505153249 | 76 | 0 | 2.6 | 7.0 | 0.00 | 0.00 | 0.00 | 72 | 1012.5 |
| 20260505152726 | 75 | 0 | 3.5 | 7.0 | 0.00 | 0.00 | 0.00 | 74 | 1012.6 |
| 20260505152222 | 74 | 0 | 1.7 | 8.7 | 0.00 | 0.00 | 0.00 | 75 | 1012.8 |
| 20260505151713 | 74 | 315 | 2.6 | 9.6 | 0.00 | 0.00 | 0.00 | 77 | 1012.8 |
| 20260505150643 | 74 | 0 | 4.3 | 7.0 | 0.00 | 0.00 | 0.00 | 77 | 1013.0 |
| 20260505140441 | 68 | 45 | 2.6 | 4.3 | 0.00 | 0.00 | 0.00 | 78 | 1013.0 |
| 20260505124710 | 61 | 90 | 1.7 | 5.2 | 0.00 | 0.00 | 0.00 | 86 | 1013.3 |
| 20260505124209 | 60 | 45 | 1.7 | 5.2 | 0.00 | 0.00 | 0.00 | 86 | 1013.6 |
| 20260505123703 | 60 | 90 | 1.7 | 5.2 | 0.00 | 0.00 | 0.00 | 86 | 1013.2 |
| 20260505122631 | 60 | 90 | 1.7 | 5.2 | 0.00 | 0.00 | 0.00 | 85 | 1013.2 |
| 20260505122127 | 60 | 90 | 0.0 | 4.3 | 0.00 | 0.00 | 0.00 | 85 | 1013.0 |
| 20260505121611 | 60 | 90 | 1.7 | 4.3 | 0.00 | 0.00 | 0.00 | 85 | 1012.7 |
| 20260505121102 | 60 | 90 | 2.6 | 3.5 | 0.00 | 0.00 | 0.00 | 85 | 1013.0 |
| 20260505120617 | 59 | 90 | 1.7 | 3.5 | 0.00 | 0.00 | 0.00 | 85 | 1012.8 |
| 20260505120040 | 59 | 90 | 0.0 | 3.5 | 0.00 | 0.00 | 0.00 | 85 | 1013.0 |
| 20260505115535 | 59 | 90 | 1.7 | 3.5 | 0.00 | 0.00 | 0.00 | 85 | 1012.8 |
| 20260505115032 | 59 | 45 | 0.9 | 3.5 | 0.00 | 0.00 | 0.00 | 85 | 1012.7 |
| 20260505114509 | 59 | 90 | 0.9 | 3.5 | 0.00 | 0.00 | 0.00 | 85 | 1012.7 |
| 20260505114003 | 59 | 90 | 1.7 | 6.1 | 0.00 | 0.00 | 0.00 | 85 | 1012.5 |
| 20260505113530 | 59 | 90 | 2.6 | 6.1 | 0.00 | 0.00 | 0.00 | 84 | 1012.6 |
| 20260505112510 | 59 | 0 | 1.7 | 5.2 | 0.00 | 0.00 | 0.00 | 84 | 1012.5 |
| 20260505112036 | 59 | 0 | 0.9 | 2.6 | 0.00 | 0.00 | 0.00 | 83 | 1012.4 |
| 20260505111607 | 58 | 0 | 1.7 | 3.5 | 0.00 | 0.00 | 0.00 | 83 | 1012.1 |
| 20260505101726 | 58 | 0 | 0.0 | 2.6 | 0.00 | 0.00 | 0.00 | 81 | 1011.7 |
| 20260505101222 | 58 | 0 | 1.7 | 2.6 | 0.00 | 0.00 | 0.00 | 81 | 1011.9 |
| 20260505100707 | 58 | 0 | 0.0 | 1.7 | 0.00 | 0.00 | 0.00 | 81 | 1011.8 |
| 20260505100202 | 58 | 0 | 0.0 | 3.5 | 0.00 | 0.00 | 0.00 | 81 | 1011.8 |
| 20260505095639 | 57 | 0 | 0.0 | 3.5 | 0.00 | 0.00 | 0.00 | 81 | 1011.7 |
| 20260505095127 | 57 | 0 | 0.9 | 3.5 | 0.00 | 0.00 | 0.00 | 81 | 1011.7 |
| 20260505094624 | 57 | 0 | 0.9 | 2.6 | 0.00 | 0.00 | 0.00 | 81 | 1011.6 |
| 20260505094111 | 57 | 0 | 0.9 | 2.6 | 0.00 | 0.00 | 0.00 | 81 | 1011.4 |
| 20260505093602 | 57 | 0 | 0.9 | 2.6 | 0.00 | 0.00 | 0.00 | 81 | 1011.6 |
| 20260505093101 | 57 | 0 | 0.0 | 3.5 | 0.00 | 0.00 | 0.00 | 81 | 1011.4 |
| 20260505092557 | 57 | 0 | 0.9 | 3.5 | 0.00 | 0.00 | 0.00 | 81 | 1011.2 |
| 20260505091530 | 57 | 0 | 0.9 | 2.6 | 0.00 | 0.00 | 0.00 | 81 | 1011.4 |
| 20260505091009 | 57 | 0 | 0.0 | 3.5 | 0.00 | 0.00 | 0.00 | 81 | 1011.4 |
| 20260505090459 | 57 | 0 | 1.7 | 3.5 | 0.00 | 0.00 | 0.00 | 81 | 1011.3 |
| 20260505085954 | 57 | 0 | 0.0 | 2.6 | 0.00 | 0.00 | 0.00 | 81 | 1011.5 |
| 20260505085434 | 57 | 0 | 0.9 | 2.6 | 0.00 | 0.00 | 0.00 | 81 | 1011.6 |
| 20260505084933 | 57 | 0 | 0.0 | 3.5 | 0.00 | 0.00 | 0.00 | 82 | 1011.6 |
| 20260505084424 | 57 | 0 | 0.0 | 3.5 | 0.00 | 0.00 | 0.00 | 82 | 1011.5 |
| 20260505083918 | 57 | 0 | 0.9 | 2.6 | 0.00 | 0.00 | 0.00 | 82 | 1011.3 |
| 20260505083402 | 57 | 0 | 1.7 | 2.6 | 0.00 | 0.00 | 0.00 | 81 | 1011.3 |
| 20260505082906 | 57 | 0 | 0.0 | 1.7 | 0.00 | 0.00 | 0.00 | 81 | 1011.1 |
| 20260505082336 | 57 | 0 | 0.0 | 1.7 | 0.00 | 0.00 | 0.00 | 81 | 1011.2 |
| 20260505081835 | 57 | 0 | 1.7 | 2.6 | 0.00 | 0.00 | 0.00 | 81 | 1011.2 |
| 20260505081323 | 57 | 0 | 0.0 | 2.6 | 0.00 | 0.00 | 0.00 | 81 | 1011.2 |
| 20260505080839 | 57 | 0 | 0.0 | 3.5 | 0.00 | 0.00 | 0.00 | 81 | 1011.2 |
| 20260505075811 | 56 | 0 | 0.9 | 1.7 | 0.00 | 0.00 | 0.00 | 81 | 1011.0 |
| 20260505074731 | 56 | 0 | 0.0 | 1.7 | 0.00 | 0.00 | 0.00 | 82 | 1011.0 |
| 20260505074220 | 55 | 0 | 0.0 | 1.7 | 0.00 | 0.00 | 0.00 | 82 | 1011.0 |
| 20260505073730 | 55 | 0 | 0.0 | 1.7 | 0.00 | 0.00 | 0.00 | 82 | 1010.8 |
| 20260505073248 | 55 | 0 | 0.0 | 1.7 | 0.00 | 0.00 | 0.00 | 83 | 1011.1 |
| 20260505072137 | 54 | 0 | 0.0 | 1.7 | 0.00 | 0.00 | 0.00 | 84 | 1010.9 |
| 20260505071626 | 54 | 0 | 0.0 | 0.0 | 0.00 | 0.00 | 0.00 | 85 | 1010.9 |
| 20260505071121 | 54 | 0 | 0.0 | 1.7 | 0.00 | 0.00 | 0.00 | 85 | 1010.9 |
| 20260505070601 | 54 | 0 | 0.0 | 1.7 | 0.00 | 0.00 | 0.00 | 85 | 1010.8 |
| 20260505070109 | 54 | 0 | 0.9 | 1.7 | 0.00 | 0.00 | 0.00 | 85 | 1010.7 |
| 20260505065553 | 54 | 0 | 0.0 | 0.0 | 0.00 | 0.00 | 0.00 | 85 | 1010.7 |
| 20260505065035 | 54 | 0 | 0.0 | 0.0 | 0.00 | 0.00 | 0.00 | 85 | 1010.7 |
| 20260505064533 | 54 | 0 | 0.0 | 1.7 | 0.00 | 0.00 | 0.00 | 85 | 1010.9 |
| 20260505064026 | 54 | 0 | 0.0 | 1.7 | 0.00 | 0.00 | 0.00 | 85 | 1011.0 |
| 20260505063530 | 54 | 0 | 0.0 | 3.5 | 0.00 | 0.00 | 0.00 | 85 | 1010.8 |
| 20260505062505 | 54 | 0 | 0.9 | 1.7 | 0.00 | 0.00 | 0.00 | 84 | 1010.9 |
| 20260505061454 | 54 | 0 | 0.0 | 1.7 | 0.00 | 0.00 | 0.00 | 84 | 1011.1 |
| 20260505060405 | 54 | 0 | 0.9 | 1.7 | 0.00 | 0.00 | 0.00 | 84 | 1011.2 |
| 20260505055922 | 54 | 0 | 0.0 | 1.7 | 0.00 | 0.00 | 0.00 | 84 | 1011.2 |
| 20260505054833 | 53 | 0 | 0.0 | 1.7 | 0.00 | 0.00 | 0.00 | 84 | 1011.5 |
| 20260505054336 | 53 | 0 | 0.0 | 1.7 | 0.00 | 0.00 | 0.00 | 84 | 1011.5 |
| 20260505053824 | 53 | 0 | 0.9 | 1.7 | 0.00 | 0.00 | 0.00 | 84 | 1011.4 |
| 20260505053257 | 53 | 0 | 0.0 | 0.0 | 0.00 | 0.00 | 0.00 | 84 | 1011.4 |
| 20260505052753 | 53 | 0 | 0.0 | 1.7 | 0.00 | 0.00 | 0.00 | 85 | 1011.5 |
| 20260505052256 | 53 | 0 | 0.0 | 1.7 | 0.00 | 0.00 | 0.00 | 85 | 1011.6 |
| 20260505051829 | 53 | 0 | 0.0 | 1.7 | 0.00 | 0.00 | 0.00 | 85 | 1011.7 |
| 20260505051359 | 53 | 0 | 0.0 | 1.7 | 0.00 | 0.00 | 0.00 | 85 | 1011.4 |
| 20260505041540 | 55 | 0 | 0.0 | 0.9 | 0.00 | 0.00 | 0.00 | 80 | 1011.3 |
| 20260505041020 | 55 | 0 | 0.0 | 0.0 | 0.00 | 0.00 | 0.00 | 80 | 1011.4 |
| 20260505040528 | 55 | 0 | 0.0 | 0.0 | 0.00 | 0.00 | 0.00 | 81 | 1011.5 |
| 20260505040040 | 55 | 0 | 0.0 | 0.0 | 0.00 | 0.00 | 0.00 | 82 | 1011.4 |
| 20260505034946 | 55 | 0 | 0.0 | 0.0 | 0.00 | 0.00 | 0.00 | 81 | 1011.5 |
| 20260505034433 | 55 | 0 | 0.0 | 0.0 | 0.00 | 0.00 | 0.00 | 81 | 1011.3 |
| 20260505033942 | 55 | 0 | 0.0 | 2.6 | 0.00 | 0.00 | 0.00 | 79 | 1011.3 |
| 20260505032910 | 55 | 0 | 0.9 | 3.5 | 0.00 | 0.00 | 0.00 | 80 | 1011.2 |
| 20260505032357 | 55 | 0 | 1.7 | 3.5 | 0.00 | 0.00 | 0.00 | 80 | 1011.2 |
| 20260505031851 | 55 | 0 | 0.0 | 3.5 | 0.00 | 0.00 | 0.00 | 79 | 1011.2 |
| 20260505031339 | 56 | 0 | 1.7 | 3.5 | 0.00 | 0.00 | 0.00 | 79 | 1011.4 |
| 20260505030816 | 56 | 0 | 0.0 | 1.7 | 0.00 | 0.00 | 0.00 | 79 | 1011.3 |
| 20260505030331 | 56 | 0 | 0.0 | 1.7 | 0.00 | 0.00 | 0.00 | 79 | 1011.3 |
| 20260505025803 | 56 | 0 | 0.0 | 1.7 | 0.00 | 0.00 | 0.00 | 79 | 1011.3 |
| 20260505025259 | 56 | 0 | 0.0 | 2.6 | 0.00 | 0.00 | 0.00 | 78 | 1011.4 |
| 20260505024748 | 56 | 0 | 0.9 | 3.5 | 0.00 | 0.00 | 0.00 | 78 | 1011.1 |
| 20260505024223 | 56 | 0 | 0.9 | 3.5 | 0.00 | 0.00 | 0.00 | 78 | 1011.2 |
| 20260505023719 | 56 | 0 | 1.7 | 3.5 | 0.00 | 0.00 | 0.00 | 78 | 1011.3 |
| 20260505023216 | 56 | 0 | 0.0 | 1.7 | 0.00 | 0.00 | 0.00 | 79 | 1011.4 |
| 20260505022659 | 56 | 0 | 0.0 | 1.7 | 0.00 | 0.00 | 0.00 | 79 | 1011.2 |
| 20260505022151 | 56 | 0 | 0.0 | 1.7 | 0.00 | 0.00 | 0.00 | 78 | 1011.3 |
| 20260505021655 | 56 | 0 | 0.0 | 0.0 | 0.00 | 0.00 | 0.00 | 76 | 1011.5 |
| 20260505021122 | 56 | 0 | 0.0 | 1.7 | 0.00 | 0.00 | 0.00 | 76 | 1011.3 |
| 20260505020628 | 56 | 0 | 0.0 | 1.7 | 0.00 | 0.00 | 0.00 | 76 | 1011.5 |
| 20260505020109 | 56 | 0 | 0.0 | 1.7 | 0.00 | 0.00 | 0.00 | 77 | 1011.4 |
| 20260505015555 | 56 | 0 | 0.0 | 1.7 | 0.00 | 0.00 | 0.00 | 77 | 1011.3 |
| 20260505015049 | 56 | 0 | 0.0 | 1.7 | 0.00 | 0.00 | 0.00 | 77 | 1011.4 |
| 20260505014544 | 56 | 0 | 0.0 | 2.6 | 0.00 | 0.00 | 0.00 | 77 | 1011.4 |
| 20260505014021 | 56 | 0 | 0.0 | 2.6 | 0.00 | 0.00 | 0.00 | 76 | 1011.2 |
| 20260505013528 | 57 | 0 | 0.9 | 2.6 | 0.00 | 0.00 | 0.00 | 76 | 1011.0 |
| 20260505013014 | 57 | 0 | 0.9 | 2.6 | 0.00 | 0.00 | 0.00 | 76 | 1010.9 |
| 20260505012451 | 57 | 0 | 1.7 | 2.6 | 0.00 | 0.00 | 0.00 | 76 | 1011.0 |
| 20260505011949 | 57 | 0 | 1.7 | 3.5 | 0.00 | 0.00 | 0.00 | 75 | 1011.0 |
| 20260505011453 | 57 | 0 | 0.9 | 3.5 | 0.00 | 0.00 | 0.00 | 75 | 1010.8 |
| 20260505010919 | 57 | 0 | 0.0 | 1.7 | 0.00 | 0.00 | 0.00 | 75 | 1011.1 |
| 20260505010427 | 57 | 0 | 0.0 | 1.7 | 0.00 | 0.00 | 0.00 | 75 | 1010.8 |
| 20260505005946 | 58 | 0 | 0.9 | 1.7 | 0.00 | 0.00 | 0.00 | 74 | 1010.7 |
| 20260505005455 | 58 | 0 | 0.0 | 1.7 | 0.00 | 0.00 | 0.00 | 74 | 1010.7 |
| 20260505004453 | 58 | 0 | 1.7 | 3.5 | 0.00 | 0.00 | 0.00 | 73 | 1010.4 |
| 20260505003354 | 59 | 0 | 0.9 | 2.6 | 0.00 | 0.00 | 0.00 | 72 | 1010.1 |
| 20260505002912 | 59 | 0 | 1.7 | 2.6 | 0.00 | 0.00 | 0.00 | 71 | 1010.3 |
| 20260505002416 | 59 | 0 | 0.9 | 1.7 | 0.00 | 0.00 | 0.00 | 70 | 1010.4 |